This demonstration page uses our WeatherBlox Daily Observations layout. Learn more.

Left ArrowRight Arrow

Hourly Observations for September 26, 2019

Temp ( °F °C ) Dew Point ( °F °C ) Humidity (%) Winds ( mph kmh ) Pressure ( in mb ) Visibility ( mi km ) Precip ( " mm )
12:53 am 00:53 Clear 53 11.7 44 6.7 72 72 Calm 30.03 1017 10 16 0.00 0.00
1:53 am 01:53 Clear 52 11.1 43 6.1 72 72 WSW 3 6 30.03 1017 10 16 0.00 0.00
2:53 am 02:53 Clear 49 9.4 42 5.6 77 77 NW 3 6 30.04 1017 10 16 0.00 0.00
3:53 am 03:53 Clear 48 8.9 43 6.1 83 83 W 3 6 30.03 1017 10 16 0.00 0.00
4:53 am 04:53 Mostly Cloudy 48 8.9 43 6.1 83 83 Calm 30.05 1018 10 16 0.00 0.00
5:53 am 05:53 Partly Cloudy 50 10 43 6.1 77 77 Calm 30.06 1018 10 16 0.00 0.00
6:53 am 06:53 Cloudy 50 10 45 7.2 83 83 Calm 30.07 1018 10 16 0.00 0.00
7:53 am 07:53 Cloudy with Haze 53 11.7 47 8.3 80 80 Calm 30.06 1018 4 6 0.00 0.00
8:00 am 08:00 Cloudy with Haze 53 11.7 47 8.3 80 80 Calm 30.07 1018 2 3 0.00 0.00
8:08 am 08:08 Cloudy with Haze 54 12 48 9 82 82 Calm 30.05 1018 3 4 0.00 0.00
8:15 am 08:15 Cloudy with Haze 54 12.2 47 8.3 77 77 SE 3 6 30.05 1018 4 6 0.00 0.00
8:53 am 08:53 Cloudy 56 13.3 45 7.2 67 67 S 5 7 30.06 1018 10 16 0.00 0.00
9:53 am 09:53 Cloudy 60 15.6 46 7.8 60 60 S 7 11 30.04 1017 10 16 0.00 0.00
10:53 am 10:53 Cloudy 63 17.2 42 5.6 47 47 SSE 10 17 30.01 1016 10 16 0.00 0.00
11:53 am 11:53 Cloudy 68 20 40 4.4 36 36 S 10 17 29.99 1016 10 16 0.00 0.00
12:53 pm 12:53 Mostly Cloudy 69 20.6 43 6.1 39 39 S 12 19 29.95 1014 10 16 0.00 0.00
1:53 pm 13:53 Mostly Cloudy 72 22.2 43 6.1 35 35 S 14 22 29.90 1013 10 16 0.00 0.00
2:53 pm 14:53 Sunny 74 23.3 45 7.2 36 36 S 10 17 29.85 1011 10 16 0.00 0.00
3:53 pm 15:53 Sunny 76 24.4 46 7.8 35 35 SSW 14 22 29.80 1009 10 16 0.00 0.00
4:53 pm 16:53 Sunny 75 23.9 49 9.4 40 40 S 15 24 29.76 1008 10 16 0.00 0.00
5:53 pm 17:53 Sunny 73 22.8 50 10 44 44 S 15 24 29.74 1007 10 16 0.00 0.00
6:53 pm 18:53 Mostly Cloudy 71 21.7 50 10 47 47 S 14 22 29.73 1007 10 16 0.00 0.00
7:09 pm 19:09 Mostly Cloudy 70 21.1 49 9.4 47 47 S 14 22 29.67 1005 10 16 0.00 0.00
7:53 pm 19:53 Mostly Clear 67 19.4 50 10 55 55 S 12 19 29.71 1006 10 16 0.00 0.00
8:53 pm 20:53 Clear 65 18.3 51 10.6 61 61 S 12 19 29.69 1005 10 16 0.00 0.00
9:53 pm 21:53 Clear 64 17.8 53 11.7 68 68 S 8 13 29.67 1005 10 16 0.00 0.00
10:53 pm 22:53 Clear 66 18.9 57 13.9 73 73 S 13 20 29.65 1004 10 16 0.00 0.00
11:32 pm 23:32 Mostly Cloudy 67 19.4 60 15.6 79 79 S 13 20 29.61 1003 10 16 0.00 0.00
11:53 pm 23:53 Mostly Cloudy 68 20 61 16.1 78 78 S 14 22 29.63 1003 10 16 0.00 0.00

Powered by AerisWeather